Вернуться в каталог

COSMOS 1275 DEB

АктивенPO
NORAD 42199·DEBRIS·🇷🇺 Russia

Запущен Jun 4, 1981 с Plesetsk Cosmodrome

Loading…

Ближайшие Пролёты (ближайшие 24 часа)

TLE

СвежийSource: Space-Track

Эпоха: Sep 14, 2026, 13:54 UTC

1 42199U 81053TP  26257.57947156  .00000505  00000-0  37357-3 0  9996
2 42199  82.9521 349.3431 0037782 269.9267  89.7570 13.93246075650028

Отслеживайте COSMOS 1275 DEB в реальном времени с AllMySat

Download on the App Store